Date String (YYYY-MM-DD hh:mm:ss) UTC,Instrument flags,Ambient pressure (hPa),Sample flow (lpm),Bypass flow (lpm),Sample temperature (°C),Ambient temperature (°C),ASC tube jacket temperature (°C),LED temperature (°C),Box temperature (°C),Sample RH (%),Span deviation,Mass concentration (μg/m³),Mass concentration (μg/m³),Mass concentration (μg/m³)
DateTimeUTC,F1_M11,P_M11,Q1_M11,Q2_M11,T1_M11,T2_M11,T3_M11,T4_M11,T5_M11,U1_M11,ZSPAN_M11,X0_M11,X2_M11,X1_M11
2022-01-14 13:00:00,,0824.3,5.00,0.00,23.9,23.3,00.0,33.0,25.7,10.2,0000.0,0007.86,0004.85,0004.68
2022-01-14 13:01:00,,0824.4,5.00,0.00,23.9,23.3,00.0,32.9,25.7,10.2,0000.0,0007.66,0004.50,0004.35
2022-01-14 13:02:00,,0824.4,5.01,0.00,23.9,23.3,00.0,32.9,25.7,10.2,0000.0,0007.85,0004.25,0004.10
2022-01-14 13:03:00,,0824.4,4.99,0.00,23.9,23.4,00.0,32.9,25.7,10.3,0000.0,0007.54,0003.92,0003.78
2022-01-14 13:04:00,,0824.4,5.01,0.00,23.9,23.4,00.0,32.9,25.7,10.7,0000.0,0007.60,0003.67,0003.53
2022-01-14 13:05:00,,0824.4,5.00,0.00,23.9,23.3,00.0,32.9,25.7,11.2,0000.0,0008.42,0004.01,0003.84
2022-01-14 13:06:00,,0824.4,5.00,0.00,23.9,23.3,00.0,32.9,25.7,11.1,0000.0,0008.27,0004.57,0004.38
2022-01-14 13:07:00,,0824.4,5.00,0.00,23.9,23.3,00.0,32.9,25.6,10.7,0000.0,0008.48,0004.82,0004.63
2022-01-14 13:08:00,,0824.4,5.00,0.00,23.9,23.3,00.0,32.9,25.6,10.8,0000.0,0008.90,0005.19,0004.98
2022-01-14 13:09:00,,0824.3,5.01,0.00,23.9,23.3,00.0,32.9,25.6,10.8,0000.0,0009.35,0005.52,0005.30
2022-01-14 13:10:00,,0824.3,5.00,0.00,23.9,23.3,00.0,32.9,25.7,10.6,0000.0,0009.70,0005.82,0005.58
2022-01-14 13:11:00,,0824.3,5.00,0.00,23.9,23.3,00.0,32.9,25.7,10.4,0000.0,0009.83,0005.96,0005.72
2022-01-14 13:12:00,,0824.3,5.00,0.00,23.9,23.3,00.0,32.9,25.7,10.4,0000.0,0009.92,0006.07,0005.83
2022-01-14 13:13:00,,0824.3,5.00,0.00,23.9,23.3,00.0,32.9,25.7,10.2,0000.0,0009.32,0006.11,0005.87
2022-01-14 13:14:00,,0824.4,4.99,0.00,23.9,23.3,00.0,32.9,25.7,10.3,0000.0,0009.34,0006.11,0005.86
2022-01-14 13:15:00,,0824.4,5.00,0.00,23.9,23.3,00.0,32.9,25.7,10.3,0000.0,0009.06,0006.04,0005.80
2022-01-14 13:16:00,,0824.4,5.00,0.00,23.9,23.4,00.0,32.9,25.7,10.2,0000.0,0007.90,0005.50,0005.29
2022-01-14 13:17:00,,0824.4,5.00,0.00,24.0,23.4,00.0,32.9,25.7,10.5,0000.0,0007.26,0004.93,0004.75
2022-01-14 13:18:00,,0824.5,4.98,0.00,24.0,23.4,00.0,33.0,25.7,10.7,0000.0,0006.99,0004.76,0004.58
2022-01-14 13:19:00,,0824.6,5.01,0.00,24.0,23.4,00.0,33.0,25.7,10.7,0000.0,0006.52,0004.63,0004.47
2022-01-14 13:20:00,,0824.7,4.98,0.00,24.0,23.4,00.0,33.0,25.7,10.5,0000.0,0006.00,0004.48,0004.35
2022-01-14 13:21:00,,0824.6,5.00,0.00,24.0,23.4,00.0,33.0,25.7,10.4,0000.0,0005.71,0004.34,0004.20
2022-01-14 13:22:00,,0824.6,5.00,0.00,24.0,23.4,00.0,33.0,25.7,10.5,0000.0,0005.93,0004.44,0004.27
2022-01-14 13:23:00,,0824.7,4.98,0.00,24.0,23.4,00.0,33.0,25.7,10.4,0000.0,0006.42,0004.48,0004.31
2022-01-14 13:24:00,,0824.6,4.98,0.00,24.0,23.4,00.0,33.0,25.7,10.3,0000.0,0006.51,0004.54,0004.38
2022-01-14 13:25:00,,0824.7,4.99,0.00,24.0,23.4,00.0,33.0,25.7,10.3,0000.0,0007.32,0004.65,0004.49
2022-01-14 13:26:00,,0824.7,5.01,0.00,24.0,23.4,00.0,33.0,25.8,10.3,0000.0,0007.59,0004.73,0004.56
2022-01-14 13:27:00,,0824.7,4.99,0.00,24.0,23.4,00.0,33.0,25.9,10.3,0000.0,0007.81,0004.88,0004.69
2022-01-14 13:28:00,,0824.7,5.00,0.00,24.0,23.4,00.0,33.0,25.9,10.3,0000.0,0007.93,0004.94,0004.73
2022-01-14 13:29:00,,0824.7,5.00,0.00,24.0,23.4,00.0,33.0,25.9,10.4,0000.0,0007.91,0004.91,0004.71
2022-01-14 13:30:00,,0824.8,4.99,0.00,24.0,23.4,00.0,33.0,25.9,10.4,0000.0,0007.96,0004.86,0004.65
2022-01-14 13:31:00,,0824.8,5.00,0.00,24.0,23.4,00.0,33.0,25.9,10.4,0000.0,0007.97,0004.86,0004.63
2022-01-14 13:32:00,,0824.8,4.99,0.00,24.0,23.4,00.0,33.0,25.9,10.3,0000.0,0007.97,0004.87,0004.65
2022-01-14 13:33:00,,0824.9,5.01,0.00,24.0,23.4,00.0,33.0,25.9,10.3,0000.0,0007.92,0004.79,0004.59
2022-01-14 13:34:00,,0824.9,5.00,0.00,24.0,23.4,00.0,33.0,25.9,10.3,0000.0,0007.96,0004.77,0004.58
2022-01-14 13:35:00,,0824.9,5.01,0.00,24.0,23.4,00.0,33.0,25.9,10.2,0000.0,0008.36,0004.76,0004.56
2022-01-14 13:36:00,,0824.8,4.99,0.00,24.0,23.4,00.0,33.0,25.9,10.3,0000.0,0007.92,0004.74,0004.52
2022-01-14 13:37:00,,0824.9,5.00,0.00,24.0,23.4,00.0,33.0,25.9,10.4,0000.0,0008.28,0004.74,0004.52
2022-01-14 13:38:00,,0824.9,4.98,0.00,24.0,23.4,00.0,33.0,25.9,10.3,0000.0,0008.38,0004.71,0004.51
2022-01-14 13:39:00,,0824.9,5.01,0.00,24.0,23.4,00.0,33.0,25.9,10.4,0000.0,0008.25,0004.65,0004.46
2022-01-14 13:40:00,,0825.0,5.00,0.00,24.0,23.4,00.0,33.0,25.9,10.4,0000.0,0008.06,0004.49,0004.32
2022-01-14 13:41:00,,0825.1,5.00,0.00,24.0,23.4,00.0,33.0,25.9,10.5,0000.0,0007.75,0004.26,0004.11
2022-01-14 13:42:00,,0825.1,5.00,0.00,24.0,23.4,00.0,33.0,25.9,10.6,0000.0,0007.55,0004.04,0003.90
2022-01-14 13:43:00,,0825.1,5.01,0.00,24.0,23.4,00.0,33.0,25.9,10.7,0000.0,0007.29,0003.83,0003.70
2022-01-14 13:44:00,,0825.1,4.98,0.00,24.0,23.4,00.0,33.0,25.9,10.8,0000.0,0006.87,0003.59,0003.46
2022-01-14 13:45:00,,0825.2,5.01,0.00,24.0,23.4,00.0,33.0,25.9,10.8,0000.0,0006.11,0003.36,0003.21
2022-01-14 13:46:00,,0825.2,5.00,0.00,24.0,23.4,00.0,33.0,25.9,11.0,0000.0,0004.95,0003.15,0002.93
2022-01-14 13:47:00,,0825.2,5.00,0.00,24.0,23.4,00.0,33.0,25.9,11.2,0000.0,0004.61,0002.83,0002.60
2022-01-14 13:48:00,,0825.3,5.02,0.00,24.0,23.3,00.0,33.0,25.9,11.3,0000.0,0003.76,0002.42,0002.21
2022-01-14 13:49:00,,0825.3,4.98,0.00,24.0,23.3,00.0,33.0,25.9,11.3,0000.0,0002.83,0001.98,0001.79
2022-01-14 13:50:00,,0825.3,5.01,0.00,24.0,23.3,00.0,33.0,25.9,11.4,0000.0,0002.43,0001.61,0001.44
2022-01-14 13:51:00,,0825.4,4.99,0.00,24.0,23.4,00.0,33.0,25.9,11.4,0000.0,0002.22,0001.35,0001.17
2022-01-14 13:52:00,,0825.3,5.01,0.00,24.0,23.4,00.0,33.0,25.9,11.2,0000.0,0002.08,0001.18,0000.98
2022-01-14 13:53:00,,0825.3,4.99,0.00,24.0,23.3,00.0,33.0,25.9,11.1,0000.0,0001.97,0001.05,0000.83
2022-01-14 13:54:00,,0825.3,4.99,0.00,24.0,23.4,00.0,33.0,25.9,11.0,0000.0,0002.00,0001.05,0000.80
2022-01-14 13:55:00,,0825.4,4.99,0.00,24.0,23.3,00.0,33.0,25.8,11.0,0000.0,0002.11,0001.18,0000.94
2022-01-14 13:56:00,,0825.4,5.00,0.00,24.0,23.3,00.0,33.0,25.8,10.9,0000.0,0002.27,0001.34,0001.08
2022-01-14 13:57:00,,0825.4,4.99,0.00,24.0,23.3,00.0,33.0,25.9,10.8,0000.0,0002.44,0001.51,0001.25
2022-01-14 13:58:00,,0825.3,5.01,0.00,24.0,23.3,00.0,33.0,25.9,10.7,0000.0,0002.72,0001.75,0001.49
2022-01-14 13:59:00,,0825.3,5.00,0.00,24.0,23.3,00.0,33.0,25.8,10.6,0000.0,0002.58,0001.97,0001.73
